Weather History for EGAC - January, 2013

Change the Weather History Date:

Friday, January 4, 2013

  Actual Average Record
Temperature  
Mean Temperature 50 °F -  
Max Temperature 51 °F 43 °F 51 °F (2013)
Min Temperature 48 °F 36 °F 26 °F (2006)
Degree Days  
Heating Degree Days 16    
Moisture  
Dew Point 46 °F    
Average Humidity 87    
Maximum Humidity 94    
Minimum Humidity 76    
Precipitation  
Precipitation 0.00 in - - ()
Sea Level Pressure  
Sea Level Pressure 30.49 in    
Wind  
Wind Speed 9 mph ()    
Max Wind Speed 16 mph    
Max Gust Speed -    
Visibility 6.2 miles    
Events      
Averages and records for this station are not official NWS values.
T = Trace of Precipitation, MM = Missing Value Source: Averaged Metar Reports

Daily Weather History Graph

Daily Weather History Graph

Search for Another Location

Airport or City:

Trip Planner

Search our weather history database for the weather conditions in past years. The results will help you decide how hot, cold, wet, or windy it might be!

Date:

Astronomy

Jan. 04, 2013 Rise Set
Actual Time 8:44 AM GMT 4:12 PM GMT
Civil Twilight 8:00 AM GMT 4:56 PM GMT
Nautical Twilight 7:14 AM GMT 5:42 PM GMT
Astronomical Twilight 6:30 AM GMT 6:26 PM GMT
Moon No Moon Rise 11:07 AM GMT (1/4)
Length of Visible Light 8h 55m
Length of Day
7h 27m
Waning Gibbous, 57% of the Moon is Illuminated
Jan 4
Waning Gibbous
Jan 5
Last Quarter
Jan 11
New
Jan 18
First Quarter
Jan 27
Full

Hourly Weather History & Observations

Time (GMT) Temp. Dew Point Humidity Pressure Visibility Wind Dir Wind Speed Gust Speed Precip Events Conditions
6:20 AM 50.0 °F 48.2 °F 94% 30.48 in 6.2 mi SSW 12.7 mph - N/A   Mostly Cloudy
6:50 AM 51.8 °F 44.6 °F 76% 30.48 in 6.2 mi SW 16.1 mph - N/A   Mostly Cloudy
7:20 AM 50.0 °F 44.6 °F 82% 30.48 in 6.2 mi SW 12.7 mph - N/A   Mostly Cloudy
7:50 AM 50.0 °F 44.6 °F 82% 30.51 in 6.2 mi SW 10.4 mph - N/A   Mostly Cloudy
8:20 AM 50.0 °F 44.6 °F 82% 30.51 in 6.2 mi SSW 6.9 mph - N/A   Mostly Cloudy
8:50 AM 50.0 °F 44.6 °F 82% 30.51 in 6.2 mi South 6.9 mph - N/A   Mostly Cloudy
9:20 AM 50.0 °F 44.6 °F 82% 30.51 in 6.2 mi SSW 6.9 mph - N/A   Mostly Cloudy
9:50 AM 50.0 °F 46.4 °F 87% 30.51 in 6.2 mi SSW 9.2 mph - N/A   Mostly Cloudy
10:20 AM 50.0 °F 46.4 °F 87% 30.51 in 6.2 mi SSW 10.4 mph - N/A   Mostly Cloudy
10:50 AM 50.0 °F 46.4 °F 87% 30.51 in 6.2 mi SSW 9.2 mph - N/A   Mostly Cloudy
11:20 AM 50.0 °F 46.4 °F 87% 30.51 in 6.2 mi SSW 10.4 mph - N/A   Mostly Cloudy
11:50 AM 50.0 °F 46.4 °F 87% 30.51 in 6.2 mi SSW 10.4 mph - N/A   Mostly Cloudy
12:20 PM 50.0 °F 46.4 °F 87% 30.51 in 6.2 mi SSW 8.1 mph - N/A   Mostly Cloudy
12:50 PM 50.0 °F 46.4 °F 87% 30.51 in 6.2 mi SW 12.7 mph - N/A   Mostly Cloudy
1:20 PM 50.0 °F 46.4 °F 87% 30.51 in 6.2 mi SSW 11.5 mph - N/A   Mostly Cloudy
1:50 PM 50.0 °F 46.4 °F 87% 30.51 in 6.2 mi SSW 11.5 mph - N/A   Mostly Cloudy
2:20 PM 50.0 °F 46.4 °F 87% 30.51 in 6.2 mi SSW 11.5 mph - N/A   Mostly Cloudy
2:50 PM 48.2 °F 46.4 °F 93% 30.48 in 6.2 mi SSW 11.5 mph - N/A   Light Drizzle
3:20 PM 48.2 °F 46.4 °F 93% 30.48 in 6.2 mi South 9.2 mph - N/A   Light Drizzle
3:50 PM 50.0 °F 46.4 °F 87% 30.48 in 6.2 mi SSW 9.2 mph - N/A   Light Drizzle
4:20 PM 50.0 °F 46.4 °F 87% 30.48 in 6.2 mi South 10.4 mph - N/A   Mostly Cloudy
4:50 PM 50.0 °F 46.4 °F 87% 30.48 in 6.2 mi South 6.9 mph - N/A   Mostly Cloudy
5:20 PM 50.0 °F 46.4 °F 87% 30.48 in 6.2 mi South 9.2 mph - N/A   Mostly Cloudy
5:50 PM 50.0 °F 46.4 °F 87% 30.45 in 6.2 mi South 9.2 mph - N/A   Mostly Cloudy
6:20 PM 50.0 °F 46.4 °F 87% 30.45 in 6.2 mi South 8.1 mph - N/A   Mostly Cloudy
6:50 PM 50.0 °F 46.4 °F 87% 30.45 in 6.2 mi South 9.2 mph - N/A   Mostly Cloudy
7:20 PM 50.0 °F 46.4 °F 87% 30.45 in 6.2 mi South 10.4 mph - N/A   Mostly Cloudy
7:50 PM 50.0 °F 46.4 °F 87% 30.45 in 6.2 mi SSE 8.1 mph - N/A   Mostly Cloudy
8:20 PM 48.2 °F 46.4 °F 93% 30.45 in 6.2 mi SSE 8.1 mph - N/A   Mostly Cloudy
8:50 PM 48.2 °F 46.4 °F 93% 30.45 in 6.2 mi SSE 10.4 mph - N/A   Mostly Cloudy